Weather History for KOZW - February, 2012

Change the Weather History Date:

Friday, February 3, 2012

  Actual Average Record
Temperature  
Mean Temperature 30 °F -  
Max Temperature 36 °F 32 °F 50 °F (2004)
Min Temperature 25 °F 19 °F -2 °F (2014)
Degree Days  
Heating Degree Days 34    
Moisture  
Dew Point 30 °F    
Average Humidity 89    
Maximum Humidity 99    
Minimum Humidity 78    
Precipitation  
Precipitation 0.00 in - - ()
Sea Level Pressure  
Sea Level Pressure 30.42 in    
Wind  
Wind Speed 2 mph (West)    
Max Wind Speed 6 mph    
Max Gust Speed -    
Visibility 5 miles    
Events      
Averages and records for this station are not official NWS values.
T = Trace of Precipitation, MM = Missing Value Source: NWS Daily Summary

Daily Weather History Graph

Daily Weather History Graph

Search for Another Location

Airport or City:

Trip Planner

Search our weather history database for the weather conditions in past years. The results will help you decide how hot, cold, wet, or windy it might be!

Date:

Astronomy

Feb. 03, 2012 Rise Set
Actual Time 7:48 AM EST 5:51 PM EST
Civil Twilight 7:18 AM EST 6:21 PM EST
Nautical Twilight 6:45 AM EST 6:54 PM EST
Astronomical Twilight 6:12 AM EST 7:28 PM EST
Moon 1:49 PM EST 4:26 AM EST
Length of Visible Light 11h 02m
Length of Day
10h 02m
Waxing Gibbous, 81% of the Moon is Illuminated
Feb 3
Waxing Gibbous
Feb 7
Full
Feb 14
Last Quarter
Feb 21
New
Feb 29
First Quarter

Hourly Weather History & Observations

Time (EST) Temp. Windchill Dew Point Humidity Pressure Visibility Wind Dir Wind Speed Gust Speed Precip Events Conditions
12:15 AM 29.3 °F 25.6 °F 27.5 °F 93% 30.40 in 7.0 mi SSE 3.5 mph - N/A   Scattered Clouds
12:34 AM 28.2 °F - 27.0 °F 95% 30.39 in 5.0 mi Calm Calm - N/A   Mostly Cloudy
12:55 AM 29.5 °F - 28.0 °F 94% 30.40 in 7.0 mi Calm Calm - N/A   Overcast
1:15 AM 30.6 °F - 28.9 °F 94% 30.40 in 7.0 mi Calm Calm - N/A   Overcast
1:34 AM 30.7 °F - 28.9 °F 93% 30.40 in 7.0 mi Calm Calm - N/A   Overcast
1:55 AM 30.2 °F 26.7 °F 28.4 °F 93% 30.40 in 7.0 mi ESE 3.5 mph - N/A   Overcast
2:14 AM 30.7 °F 26.0 °F 28.9 °F 93% 30.40 in 7.0 mi SE 4.6 mph - N/A   Overcast
2:34 AM 30.2 °F 26.7 °F 28.4 °F 93% 30.40 in 7.0 mi SSE 3.5 mph - N/A   Overcast
2:55 AM 31.5 °F - 29.3 °F 92% 30.40 in 7.0 mi Calm Calm - N/A   Overcast
3:15 AM 31.5 °F - 29.3 °F 92% 30.41 in 7.0 mi Calm Calm - N/A   Overcast
3:34 AM 31.1 °F - 28.9 °F 92% 30.41 in 7.0 mi Calm Calm - N/A   Overcast
3:55 AM 32.0 °F 28.7 °F 30.0 °F 92% 30.42 in 7.0 mi SSW 3.5 mph - N/A   Overcast
4:14 AM 32.0 °F 28.7 °F 29.3 °F 90% 30.42 in 7.0 mi SSW 3.5 mph - N/A   Overcast
4:34 AM 31.1 °F - 28.8 °F 91% 30.42 in 7.0 mi Calm Calm - N/A   Mostly Cloudy
4:55 AM 31.1 °F - 28.6 °F 90% 30.42 in 7.0 mi Calm Calm - N/A   Scattered Clouds
5:14 AM 29.3 °F - 27.3 °F 92% 30.43 in 5.0 mi Calm Calm - N/A   Clear
5:35 AM 29.1 °F - 27.5 °F 94% 30.43 in 4.0 mi Calm Calm - N/A   Clear
5:55 AM 27.9 °F - 26.4 °F 94% 30.43 in 3.0 mi Calm Calm - N/A   Mist
6:14 AM 27.7 °F - 26.6 °F 96% 30.43 in 3.0 mi Calm Calm - N/A   Mist
6:35 AM 27.9 °F - 27.1 °F 97% 30.44 in 2.5 mi Calm Calm - N/A   Mist
6:54 AM 27.1 °F - 26.4 °F 97% 30.44 in 2.5 mi Calm Calm - N/A   Mist
7:15 AM 26.4 °F - 25.7 °F 97% 30.44 in 2.5 mi Calm Calm - N/A   Mist
7:35 AM 25.9 °F - 25.3 °F 98% 30.44 in 3.0 mi Calm Calm - N/A   Mostly Cloudy
7:54 AM 27.0 °F - 26.4 °F 98% 30.45 in 4.0 mi Calm Calm - N/A   Overcast
8:15 AM 30.2 °F - 29.7 °F 98% 30.46 in 3.0 mi Calm Calm - N/A   Overcast
8:35 AM 30.0 °F - 29.3 °F 97% 30.46 in 3.0 mi Calm Calm - N/A   Overcast
8:54 AM 30.7 °F 27.3 °F 30.0 °F 97% 30.46 in 3.0 mi SW 3.5 mph - N/A   Overcast
9:15 AM 30.9 °F 27.5 °F 30.0 °F 96% 30.46 in 3.0 mi SW 3.5 mph - N/A   Overcast
9:34 AM 31.6 °F - 30.9 °F 97% 30.45 in 3.0 mi Calm Calm - N/A   Overcast
9:54 AM 32.0 °F 28.7 °F 31.5 °F 98% 30.45 in 3.0 mi SW 3.5 mph - N/A   Overcast
10:15 AM 32.4 °F 29.1 °F 32.0 °F 99% 30.45 in 3.0 mi WSW 3.5 mph - N/A   Overcast
10:34 AM 33.6 °F 30.6 °F 32.4 °F 95% 30.46 in 3.0 mi WSW 3.5 mph - N/A   Overcast
10:55 AM 34.3 °F 31.4 °F 32.9 °F 94% 30.45 in 3.0 mi WSW 3.5 mph - N/A   Overcast
11:14 AM 35.1 °F 32.2 °F 33.6 °F 94% 30.46 in 3.0 mi WSW 3.5 mph - N/A   Overcast
11:34 AM 35.8 °F 31.9 °F 33.8 °F 92% 30.45 in 4.0 mi SW 4.6 mph - N/A   Overcast
11:55 AM 36.0 °F 31.1 °F 33.3 °F 90% 30.45 in 4.0 mi WSW 5.8 mph - N/A   Overcast
12:14 PM 36.0 °F 31.1 °F 32.9 °F 89% 30.44 in 5.0 mi WSW 5.8 mph - N/A   Overcast
12:35 PM 35.6 °F 30.7 °F 32.4 °F 88% 30.43 in 5.0 mi WSW 5.8 mph - N/A   Overcast
12:55 PM 35.8 °F 31.9 °F 32.2 °F 87% 30.42 in 5.0 mi West 4.6 mph - N/A   Overcast
1:14 PM 36.1 °F 32.3 °F 32.0 °F 85% 30.41 in 5.0 mi West 4.6 mph - N/A   Overcast
1:35 PM 36.5 °F 32.7 °F 32.0 °F 84% 30.40 in 5.0 mi West 4.6 mph - N/A   Haze
1:55 PM 36.1 °F 32.3 °F 32.0 °F 85% 30.40 in 4.0 mi WNW 4.6 mph - N/A   Overcast
2:15 PM 36.3 °F 32.5 °F 32.0 °F 84% 30.40 in 5.0 mi NW 4.6 mph - N/A   Overcast
2:35 PM 36.5 °F 32.7 °F 32.0 °F 84% 30.40 in 5.0 mi WNW 4.6 mph - N/A   Overcast
2:54 PM 36.1 °F 33.5 °F 32.0 °F 85% 30.40 in 4.0 mi NW 3.5 mph - N/A   Overcast
3:15 PM 36.3 °F 31.6 °F 32.0 °F 84% 30.40 in 4.0 mi NW 5.8 mph - N/A   Overcast
3:35 PM 36.0 °F 31.1 °F 31.8 °F 85% 30.41 in 4.0 mi NNW 5.8 mph - N/A   Overcast
3:55 PM 35.8 °F 30.9 °F 31.6 °F 85% 30.41 in 4.0 mi NW 5.8 mph - N/A   Haze
4:15 PM 35.8 °F 33.0 °F 31.1 °F 83% 30.41 in 4.0 mi NNW 3.5 mph - N/A   Haze
4:35 PM 35.6 °F 32.8 °F 30.9 °F 83% 30.41 in 4.0 mi NW 3.5 mph - N/A   Haze
4:55 PM 35.6 °F 32.8 °F 31.1 °F 84% 30.41 in 4.0 mi NNW 3.5 mph - N/A   Haze
5:14 PM 35.6 °F - 31.1 °F 84% 30.40 in 4.0 mi Calm Calm - N/A   Haze
5:35 PM 35.8 °F - 31.1 °F 83% 30.41 in 5.0 mi Calm Calm - N/A   Haze
5:55 PM 35.1 °F - 30.4 °F 83% 30.41 in 5.0 mi Calm Calm - N/A   Haze
6:14 PM 35.1 °F 32.2 °F 30.2 °F 82% 30.41 in 5.0 mi North 3.5 mph - N/A   Haze
6:35 PM 34.9 °F - 30.2 °F 83% 30.40 in 7.0 mi Calm Calm - N/A   Overcast
6:55 PM 34.9 °F - 30.2 °F 83% 30.41 in 7.0 mi Calm Calm - N/A   Overcast
7:14 PM 34.7 °F - 30.4 °F 84% 30.41 in 7.0 mi Calm Calm - N/A   Overcast
7:35 PM 34.7 °F - 29.8 °F 82% 30.41 in 7.0 mi Calm Calm - N/A   Overcast
7:55 PM 34.7 °F - 29.1 °F 80% 30.40 in 10.0 mi Calm Calm - N/A   Overcast
8:14 PM 34.7 °F - 29.1 °F 80% 30.41 in 10.0 mi Calm Calm - N/A   Overcast
8:35 PM 34.7 °F 30.6 °F 29.1 °F 80% 30.40 in 10.0 mi NNE 4.6 mph - N/A   Overcast
8:54 PM 34.7 °F - 28.4 °F 78% 30.40 in 10.0 mi Calm Calm - N/A   Overcast
9:14 PM 34.7 °F - 28.6 °F 78% 30.40 in 10.0 mi Calm Calm - N/A   Overcast
9:35 PM 34.7 °F 31.8 °F 28.6 °F 78% 30.40 in 10.0 mi NE 3.5 mph - N/A   Overcast
9:54 PM 34.7 °F - 28.8 °F 79% 30.40 in 10.0 mi Calm Calm - N/A   Overcast
10:15 PM 34.5 °F - 28.9 °F 80% 30.39 in 10.0 mi Calm Calm - N/A   Overcast
10:35 PM 34.7 °F 31.8 °F 29.1 °F 80% 30.38 in 10.0 mi NE 3.5 mph - N/A   Overcast
10:54 PM 34.7 °F 31.8 °F 28.9 °F 79% 30.38 in 10.0 mi NE 3.5 mph - N/A   Overcast
11:15 PM 34.7 °F - 28.2 °F 77% 30.38 in 10.0 mi Calm Calm - N/A   Overcast
11:34 PM 34.7 °F - 28.2 °F 77% 30.38 in 10.0 mi Calm Calm - N/A   Overcast
11:54 PM 34.5 °F - 27.9 °F 77% 30.38 in 10.0 mi Calm Calm - N/A   Overcast